"Pseudo-MPEC" for N00g50z

Created 2020 Feb 21 5:07:17 UT using Find_Orb

Click here for an explanation of pseudo-MPECs

 
 Astrometry: 
     N00g50z  S2020 01 29\FW]Z.i\\e#8(X7A8vv3pvxAHHhB_4TvnfNx9!nBY,=K\m^,C\e_C51
     N00g50z  s2020 01 29@gM=LaqI/3i^eEQg9MyjL[70A[GC,dg3'ntR=)e`A*+sqDFLxkx3C51
     N00g50z  S2020 01 29\bUAstrometry=/xqo_(CSVuJ`:0[E;Tp9UBkt%\]4TF2K)dxL=UC51
     N00g50z  s2020 01 29AopQPoFredacted;+@`:+n70PtD^@106:t5@lDv39m?ibeN(%hE1C51
     N00g50z  S2020 01 2966uA0t%*_5uSdds0.JCG=b6Y(e--;rxQn?;hDy'4tZR8-clickbFC51
     N00g50z  s2020 01 29W_mNHhere^.*#$7d?0bJX'e':mal+HTR9y.;7E:t7Y9!A=Y#\Y)!C51
     N00g50z  S2020 01 29:wnUCS#Q_]D_l`vb_k]PJPQEndPw_Q76ylYSJ08-UQSo(.sS_w)jC51
     N00g50z  s2020 01 29vwUSN,lYD)YjbfnsXV(0/Ql%_?XDpil9DyAPl!Nu4s7Tgd2Clv-CC51
     N00g50z  S2020 01 29h2]-E'WaJ$TH#vSIQfor'DeT6?B+?m\LjJ9M2^/explanationiyC51
     N00g50z  s2020 01 29YmS(KO5tpsEK/m/J2V,9!0RNvj7@iKgv-8Bg`8`,cIJ02Nwi46DyC51

Station data:
(C51) WISE. Measurers A. Mainzer, E. Wright, J. Bauer, T. Grav, J. Dailey, J.
   Masiero, R. Cutri, R. McMillan, R. Walker.

Orbital elements:  N00g50z
   Perihelion 2019 Dec 2.535188 +/- 9.14 TT = 12:50:40 (JD 2458820.035188)
Epoch 2020 Jan 30.0 TT = JDT 2458878.5   Earth MOID: 0.1715   Ve: 0.0104
M  41.10443452 +/- 22               (J2000 ecliptic)          AutoNEOCP
n   0.70306280 +/- 0.401            Peri.  233.03139 +/- 13
a   1.25258334 +/- 0.477            Node   167.01415 +/- 17
e   0.4589997 +/- 0.236             Incl.   18.98842 +/- 10
P   1.40/512.04d           H 20.2   G  0.15   U 12.1  SR
q 0.67764795 +/- 0.0622    Q 1.82751874 +/- 10.2
From 5 observations 2020 Jan. 29 (7.9 hr); mean residual 0".56
Residuals in arcseconds: 
200129 C51  .32-  .89-    200129 C51  .28-  .41+    200129 C51  .45-  .43-    
200129 C51  .47+  1.0+    200129 C51  .58+  .10-    

Ephemerides (geocentric):
Date (UTC) HH   RA              Dec         delta   r     elong  mag " sig PA
---- -- -- --  -------------   -----------  ------ ------ -----  --- ---- ---
2020 02 21 05  09 29 39.223   -16 49 54.51  .21553 1.1806 150.1 18.3 634'  84
2020 02 21 06  09 29 37.237   -16 44 37.35  .21573 1.1809 150.2 18.3 635'  84
2020 02 21 07  09 29 35.258   -16 39 20.67  .21592 1.1812 150.3 18.3 636'  84
2020 02 21 08  09 29 33.287   -16 34 04.48  .21612 1.1815 150.4 18.3 637'  84
2020 02 21 09  09 29 31.325   -16 28 48.77  .21632 1.1819 150.4 18.3 639'  84
2020 02 21 10  09 29 29.371   -16 23 33.54  .21652 1.1822 150.5 18.3 640'  84
2020 02 21 11  09 29 27.425   -16 18 18.80  .21672 1.1825 150.6 18.3 641'  84
2020 02 21 12  09 29 25.487   -16 13 04.55  .21692 1.1828 150.7 18.3 642'  84
2020 02 21 13  09 29 23.558   -16 07 50.79  .21713 1.1831 150.7 18.3 643'  84
2020 02 21 14  09 29 21.636   -16 02 37.51  .21733 1.1834 150.8 18.3 644'  84
2020 02 21 15  09 29 19.723   -15 57 24.73  .21753 1.1837 150.9 18.3 646'  84
2020 02 21 16  09 29 17.817   -15 52 12.43  .21773 1.1840 151.0 18.3 647'  84
2020 02 21 17  09 29 15.920   -15 47 00.62  .21794 1.1843 151.0 18.4 648'  84
2020 02 21 18  09 29 14.031   -15 41 49.31  .21814 1.1846 151.1 18.4 649'  84
2020 02 21 19  09 29 12.150   -15 36 38.49  .21835 1.1849 151.2 18.4 650'  84
2020 02 21 20  09 29 10.277   -15 31 28.16  .21856 1.1853 151.3 18.4 651'  84
2020 02 21 21  09 29 08.412   -15 26 18.32  .21876 1.1856 151.3 18.4 652'  84
2020 02 21 22  09 29 06.555   -15 21 08.98  .21897 1.1859 151.4 18.4 653'  84
2020 02 21 23  09 29 04.705   -15 16 00.13  .21918 1.1862 151.5 18.4 654'  84
2020 02 22 00  09 29 02.864   -15 10 51.78  .21939 1.1865 151.5 18.4 656'  84
2020 02 22 01  09 29 01.031   -15 05 43.92  .21960 1.1868 151.6 18.4 657'  84
2020 02 22 02  09 28 59.206   -15 00 36.56  .21981 1.1871 151.7 18.4 658'  84
2020 02 22 03  09 28 57.389   -14 55 29.70  .22002 1.1874 151.7 18.4 659'  84
2020 02 22 04  09 28 55.580   -14 50 23.33  .22023 1.1877 151.8 18.4 660'  84
2020 02 22 05  09 28 53.778   -14 45 17.46  .22044 1.1880 151.9 18.4 661'  84
2020 02 22 06  09 28 51.985   -14 40 12.09  .22065 1.1883 152.0 18.4 662'  84
2020 02 22 07  09 28 50.199   -14 35 07.22  .22087 1.1886 152.0 18.4 663'  84
2020 02 22 08  09 28 48.421   -14 30 02.85  .22108 1.1890 152.1 18.4 664'  84
2020 02 22 09  09 28 46.652   -14 24 58.98  .22129 1.1893 152.2 18.4 665'  84
2020 02 22 10  09 28 44.890   -14 19 55.61  .22151 1.1896 152.2 18.4 666'  84
2020 02 22 11  09 28 43.135   -14 14 52.74  .22172 1.1899 152.3 18.4 667'  84
2020 02 22 12  09 28 41.389   -14 09 50.37  .22194 1.1902 152.4 18.4 668'  84
2020 02 22 13  09 28 39.650   -14 04 48.50  .22216 1.1905 152.4 18.4 669'  84
2020 02 22 14  09 28 37.920   -13 59 47.14  .22237 1.1908 152.5 18.4 670'  84
2020 02 22 15  09 28 36.197   -13 54 46.28  .22259 1.1911 152.6 18.4 671'  84
2020 02 22 16  09 28 34.482   -13 49 45.92  .22281 1.1914 152.6 18.4 673'  84
2020 02 22 17  09 28 32.774   -13 44 46.07  .22303 1.1917 152.7 18.4 674'  84
2020 02 22 18  09 28 31.074   -13 39 46.72  .22325 1.1920 152.7 18.4 675'  84
2020 02 22 19  09 28 29.382   -13 34 47.87  .22347 1.1923 152.8 18.4 676'  84
2020 02 22 20  09 28 27.698   -13 29 49.53  .22369 1.1926 152.9 18.4 677'  84
2020 02 22 21  09 28 26.022   -13 24 51.70  .22391 1.1929 152.9 18.4 678'  84
2020 02 22 22  09 28 24.353   -13 19 54.37  .22413 1.1933 153.0 18.4 679'  84
2020 02 22 23  09 28 22.692   -13 14 57.55  .22436 1.1936 153.1 18.4 680'  84
2020 02 23 00  09 28 21.038   -13 10 01.23  .22458 1.1939 153.1 18.4 681'  84
2020 02 23 01  09 28 19.392   -13 05 05.42  .22480 1.1942 153.2 18.4 682'  84
2020 02 23 02  09 28 17.754   -13 00 10.12  .22503 1.1945 153.2 18.4 682'  84
2020 02 23 03  09 28 16.123   -12 55 15.32  .22525 1.1948 153.3 18.4 683'  84
2020 02 23 04  09 28 14.500   -12 50 21.04  .22548 1.1951 153.4 18.4 684'  84